When you browse on this site, cookies collect data to enhance your experience and personalize the content and advertising you see.
Visit our Privacy Policy to learn more. By continuing to use the site, you agree to this use of cookies and data.
  • In Portugal
  • List of Countries
  • For 7 days
  • Water Temperature
  • Satellite Maps
  • Weather Map
  • Weather Widgets
  • user-avatar
    Login

    Hourly Weather Kerns

    Today, 15 December, Saturday

    Time Temperature Precipitation Wind Pressure Humidity
    00:00 +28°C° 0.4 mm 1 mps 754 mmHg 93%
    01:00 +27°C° 0.4 mm 1 mps 753 mmHg 94%
    02:00 +27°C° 0.2 mm 1 mps 753 mmHg 94%
    03:00 +27°C° 0.2 mm 1 mps 753 mmHg 94%
    04:00 +25°C° 0 mm 0 mps 753 mmHg 96%
    05:00 +28°C° 0.3 mm 1 mps 753 mmHg 94%
    06:00 +28°C° 0.3 mm 1 mps 753 mmHg 93%
    07:00 +28°C° 0.3 mm 1 mps 754 mmHg 92%
    08:00 +29°C° 0.4 mm 2 mps 754 mmHg 87%
    09:00 +31°C° 0.4 mm 2 mps 754 mmHg 82%
    10:00 +32°C° 0 mm 4 mps 753 mmHg 80%
    11:00 +32°C° 1.5 mm 4 mps 752 mmHg 84%
    12:00 +30°C° 1.5 mm 4 mps 752 mmHg 89%
    13:00 +29°C° 1.5 mm 5 mps 752 mmHg 94%
    14:00 +29°C° 0.8 mm 5 mps 751 mmHg 94%
    15:00 +29°C° 0.8 mm 5 mps 751 mmHg 94%
    16:00 +29°C° 0.8 mm 6 mps 751 mmHg 93%
    17:00 +29°C° 1.1 mm 5 mps 751 mmHg 94%
    18:00 +29°C° 1.1 mm 5 mps 751 mmHg 95%
    19:00 +28°C° 1.1 mm 5 mps 751 mmHg 95%
    20:00 +28°C° 0.2 mm 5 mps 751 mmHg 94%
    21:00 +28°C° 0.2 mm 5 mps 751 mmHg 93%
    22:00 +28°C° 0.2 mm 5 mps 752 mmHg 92%
    23:00 +27°C° 0 mm 5 mps 752 mmHg 89%

    Tomorrow, 16 December, Sunday

    Time Temperature Precipitation Wind Pressure Humidity
    00:00 +26°C° 0 mm 4 mps 751 mmHg 87%
    01:00 +25°C° 0 mm 4 mps 751 mmHg 85%
    02:00 +23°C° 0 mm 4 mps 751 mmHg 84%
    03:00 +23°C° 0 mm 4 mps 751 mmHg 84%
    04:00 +23°C° 0 mm 4 mps 750 mmHg 84%
    05:00 +23°C° 0 mm 4 mps 751 mmHg 83%
    06:00 +25°C° 0 mm 5 mps 751 mmHg 82%
    07:00 +26°C° 0 mm 5 mps 752 mmHg 81%
    08:00 +28°C° 0 mm 5 mps 752 mmHg 76%
    09:00 +30°C° 0 mm 4 mps 752 mmHg 72%
    10:00 +33°C° 0 mm 4 mps 752 mmHg 68%
    11:00 +34°C° 0 mm 4 mps 752 mmHg 67%
    12:00 +34°C° 0 mm 4 mps 752 mmHg 65%
    13:00 +34°C° 0 mm 4 mps 751 mmHg 64%
    14:00 +35°C° 0 mm 4 mps 751 mmHg 61%
    15:00 +36°C° 0 mm 4 mps 750 mmHg 57%
    16:00 +36°C° 0 mm 4 mps 750 mmHg 53%
    17:00 +34°C° 0 mm 3 mps 750 mmHg 57%
    18:00 +33°C° 0 mm 3 mps 751 mmHg 62%
    19:00 +30°C° 0 mm 2 mps 751 mmHg 66%
    20:00 +29°C° 0.2 mm 2 mps 752 mmHg 67%
    21:00 +28°C° 0.2 mm 2 mps 752 mmHg 68%
    22:00 +27°C° 0.2 mm 2 mps 753 mmHg 68%
    23:00 +27°C° 0 mm 3 mps 752 mmHg 70%

    Day after tomorrow, 17 December, Monday

    Time Temperature Precipitation Wind Pressure Humidity
    00:00 +27°C° 0 mm 3 mps 752 mmHg 72%
    01:00 +26°C° 0 mm 3 mps 752 mmHg 74%
    02:00 +26°C° 0 mm 3 mps 752 mmHg 73%
    03:00 +26°C° 0 mm 3 mps 752 mmHg 72%
    04:00 +26°C° 0 mm 3 mps 752 mmHg 71%
    05:00 +26°C° 0 mm 3 mps 753 mmHg 68%
    06:00 +26°C° 0 mm 3 mps 753 mmHg 64%
    07:00 +27°C° 0 mm 4 mps 754 mmHg 61%
    08:00 +30°C° 0 mm 3 mps 754 mmHg 54%
    09:00 +33°C° 0 mm 3 mps 754 mmHg 47%
    10:00 +36°C° 0 mm 2 mps 754 mmHg 40%
    11:00 +37°C° 0 mm 2 mps 753 mmHg 37%
    12:00 +39°C° 0 mm 3 mps 753 mmHg 34%
    13:00 +40°C° 0 mm 3 mps 752 mmHg 30%
    14:00 +40°C° 0 mm 3 mps 752 mmHg 32%
    15:00 +39°C° 0 mm 3 mps 752 mmHg 34%
    16:00 +39°C° 0 mm 2 mps 751 mmHg 36%
    17:00 +36°C° 0 mm 2 mps 752 mmHg 47%
    18:00 +34°C° 0 mm 2 mps 752 mmHg 57%
    19:00 +30°C° 0 mm 1 mps 752 mmHg 67%
    20:00 +29°C° 0 mm 1 mps 753 mmHg 70%
    21:00 +29°C° 0 mm 1 mps 754 mmHg 73%
    22:00 +28°C° 0 mm 1 mps 754 mmHg 76%
    23:00 +28°C° 0 mm 2 mps 754 mmHg 74%

    18 December, Tuesday

    Time Temperature Precipitation Wind Pressure Humidity
    00:00 +27°C° 0 mm 2 mps 754 mmHg 72%
    01:00 +27°C° 0 mm 2 mps 754 mmHg 70%
    02:00 +27°C° 0 mm 2 mps 754 mmHg 67%
    03:00 +27°C° 0 mm 2 mps 753 mmHg 65%
    04:00 +27°C° 0 mm 2 mps 753 mmHg 62%
    05:00 +27°C° 0 mm 2 mps 754 mmHg 62%
    06:00 +28°C° 0 mm 3 mps 754 mmHg 63%
    07:00 +28°C° 0 mm 3 mps 755 mmHg 63%
    08:00 +31°C° 0 mm 3 mps 755 mmHg 56%
    09:00 +35°C° 0 mm 2 mps 755 mmHg 50%
    10:00 +37°C° 0 mm 2 mps 755 mmHg 43%
    11:00 +39°C° 0 mm 2 mps 755 mmHg 40%
    12:00 +40°C° 0 mm 3 mps 754 mmHg 37%
    13:00 +43°C° 0 mm 3 mps 754 mmHg 35%
    14:00 +40°C° 0 mm 3 mps 753 mmHg 42%
    15:00 +38°C° 0 mm 3 mps 753 mmHg 49%
    16:00 +36°C° 0 mm 3 mps 752 mmHg 56%
    17:00 +34°C° 0 mm 3 mps 753 mmHg 65%
    18:00 +32°C° 0 mm 2 mps 754 mmHg 74%
    19:00 +30°C° 0 mm 2 mps 754 mmHg 82%
    20:00 +30°C° 0.2 mm 2 mps 755 mmHg 86%
    21:00 +29°C° 0.2 mm 1 mps 755 mmHg 89%
    22:00 +28°C° 0.2 mm 1 mps 756 mmHg 92%
    23:00 +28°C° 0 mm 1 mps 756 mmHg 93%

    19 December, Wednesday

    Time Temperature Precipitation Wind Pressure Humidity
    00:00 +28°C° 0 mm 1 mps 755 mmHg 94%
    01:00 +28°C° 0 mm 1 mps 755 mmHg 94%
    02:00 +28°C° 0 mm 1 mps 755 mmHg 94%
    03:00 +27°C° 0 mm 1 mps 755 mmHg 94%
    04:00 +27°C° 0 mm 2 mps 755 mmHg 94%
    05:00 +28°C° 0 mm 2 mps 755 mmHg 92%
    06:00 +29°C° 0 mm 2 mps 756 mmHg 89%
    07:00 +29°C° 0 mm 2 mps 756 mmHg 86%
    08:00 +31°C° 0.3 mm 2 mps 756 mmHg 78%
    09:00 +34°C° 0.3 mm 2 mps 756 mmHg 69%
    10:00 +37°C° 0.3 mm 2 mps 757 mmHg 60%
    11:00 +37°C° 0.5 mm 3 mps 756 mmHg 61%
    12:00 +36°C° 0.5 mm 3 mps 755 mmHg 62%
    13:00 +36°C° 0.5 mm 3 mps 755 mmHg 64%
    14:00 +36°C° 0.5 mm 3 mps 755 mmHg 68%
    15:00 +35°C° 0.5 mm 3 mps 754 mmHg 72%
    16:00 +34°C° 0.5 mm 3 mps 754 mmHg 76%
    17:00 +33°C° 0.7 mm 3 mps 754 mmHg 81%
    18:00 +31°C° 0.7 mm 3 mps 755 mmHg 86%
    19:00 +30°C° 0.7 mm 2 mps 755 mmHg 91%
    20:00 +29°C° 0.5 mm 2 mps 756 mmHg 93%
    21:00 +29°C° 0.5 mm 2 mps 756 mmHg 94%
    22:00 +28°C° 0.5 mm 2 mps 757 mmHg 95%
    23:00 +28°C° 0.5 mm 2 mps 757 mmHg 95%

    20 December, Thursday

    Time Temperature Precipitation Wind Pressure Humidity
    00:00 +28°C° 0.5 mm 1 mps 756 mmHg 95%
    01:00 +28°C° 0.5 mm 1 mps 756 mmHg 95%
    02:00 +27°C° 0.2 mm 1 mps 756 mmHg 95%
    03:00 +27°C° 0.2 mm 1 mps 756 mmHg 96%
    04:00 +27°C° 0.2 mm 2 mps 756 mmHg 96%
    05:00 +28°C° 0.1 mm 2 mps 756 mmHg 94%
    06:00 +28°C° 0.1 mm 2 mps 757 mmHg 92%
    07:00 +29°C° 0.1 mm 1 mps 757 mmHg 89%
    08:00 +31°C° 0 mm 1 mps 757 mmHg 80%
    09:00 +33°C° 0 mm 1 mps 757 mmHg 70%
    10:00 +36°C° 0 mm 1 mps 757 mmHg 60%
    11:00 +37°C° 0.1 mm 2 mps 756 mmHg 60%
    12:00 +37°C° 0.1 mm 2 mps 755 mmHg 61%
    13:00 +36°C° 0.1 mm 3 mps 755 mmHg 61%
    14:00 +36°C° 0.6 mm 3 mps 754 mmHg 66%
    15:00 +35°C° 0.6 mm 3 mps 754 mmHg 71%
    16:00 +34°C° 0.6 mm 3 mps 753 mmHg 76%
    17:00 +32°C° 0.7 mm 2 mps 754 mmHg 81%
    18:00 +31°C° 0.7 mm 2 mps 754 mmHg 87%
    19:00 +29°C° 0.7 mm 2 mps 754 mmHg 93%
    20:00 +29°C° 0.4 mm 2 mps 755 mmHg 94%
    21:00 +29°C° 0.4 mm 2 mps 755 mmHg 95%
    22:00 +28°C° 0.4 mm 2 mps 756 mmHg 96%
    23:00 +28°C° 0.1 mm 2 mps 755 mmHg 96%
    Show more